Weather History for Trapani, Italy

Change the Weather History Date:

Tuesday, October 22, 2013

  Actual Average Record
Temperature  
Mean Temperature 72 °F -  
Max Temperature 81 °F 69 °F 81 °F (2013)
Min Temperature 64 °F 56 °F 51 °F (2007)
Cooling Degree Days 8    
Growing Degree Days 22 (Base 50)    
Moisture  
Dew Point 63 °F    
Average Humidity 77    
Maximum Humidity 94    
Minimum Humidity 46    
Precipitation  
Precipitation 0.00 in 0.08 in - ()
Sea Level Pressure  
Sea Level Pressure 30.15 in    
Wind  
Wind Speed 6 mph ()    
Max Wind Speed 14 mph    
Max Gust Speed -    
Visibility 7.0 miles    
Events      
Averages and records for this station are not official NWS values.
T = Trace of Precipitation, MM = Missing Value Source: Averaged Metar Reports

Daily Weather History Graph

Daily Weather History Graph

Search for Another Location

Airport:

Trip Planner

Search our weather history database for the weather conditions in past years. The results will help you decide how hot, cold, wet, or windy it might be!

Date:

Astronomy

Oct. 22, 2013 Rise Set
Actual Time 7:25 AM CEST 6:23 PM CEST
Civil Twilight 6:58 AM CEST 6:49 PM CEST
Nautical Twilight 6:27 AM CEST 7:20 PM CEST
Astronomical Twilight 5:57 AM CEST 7:50 PM CEST
Moon 8:52 PM CEST (10/22) 10:36 AM CEST (10/22)
Length of Visible Light 11h 51m
Length of Day
10h 57m
Waning Gibbous, 88% of the Moon is Illuminated
Oct 22
Waning Gibbous
Oct 27
Last Quarter
Nov 3
New
Nov 10
First Quarter
Nov 17
Full

Hourly Weather History & Observations

Time (CEST) Temp. Heat Index Dew Point Humidity Pressure Visibility Wind Dir Wind Speed Gust Speed Precip Events Conditions
12:55 AM 66.2 °F - 62.6 °F 88% 30.18 in 6.2 mi ESE 3.5 mph - N/A   Partly Cloudy
1:55 AM 66.2 °F - 62.6 °F 88% 30.18 in 6.2 mi ESE 2.3 mph - N/A   Partly Cloudy
2:00 AM 65 °F - 63 °F 92% 30.20 in 7 mi ESE 2.3 mph - -   Scattered Clouds
2:55 AM 66.2 °F - 62.6 °F 88% 30.18 in 6.2 mi ESE 3.5 mph - N/A   Partly Cloudy
3:55 AM 64.4 °F - 62.6 °F 94% 30.18 in 6.2 mi East 2.3 mph - N/A   Partly Cloudy
4:55 AM 66.2 °F - 62.6 °F 88% 30.15 in 6.2 mi ESE 8.1 mph - N/A   Partly Cloudy
5:55 AM 66.2 °F - 62.6 °F 88% 30.15 in 6.2 mi ESE 9.2 mph - N/A   Partly Cloudy
6:55 AM 66.2 °F - 62.6 °F 88% 30.15 in 6.2 mi SE 8.1 mph - N/A   Partly Cloudy
7:55 AM 66.2 °F - 62.6 °F 88% 30.15 in 6.2 mi ESE 6.9 mph - N/A   Partly Cloudy
8:00 AM 66 °F - 63 °F 85% 30.17 in 16 mi ESE 6.9 mph - -   Scattered Clouds
8:55 AM 68.0 °F - 62.6 °F 83% 30.15 in - SE 9.2 mph - N/A   Clear
9:55 AM 73.4 °F - 64.4 °F 73% 30.15 in - SE 13.8 mph - N/A   Clear
10:55 AM 77.0 °F - 64.4 °F 65% 30.15 in 6.2 mi SSE 12.7 mph - N/A   Scattered Clouds
11:55 AM 78.8 °F - 64.4 °F 61% 30.18 in 6.2 mi SSE 9.2 mph - N/A   Scattered Clouds
12:55 PM 80.6 °F 81.8 °F 62.6 °F 54% 30.15 in 6.2 mi SSE 9.2 mph - N/A   Partly Cloudy
1:55 PM 78.8 °F - 62.6 °F 57% 30.12 in 6.2 mi South 11.5 mph - N/A   Partly Cloudy
2:00 PM 79 °F - 62 °F 46% 30.15 in 16 mi South 11.5 mph - -   Scattered Clouds
2:55 PM 78.8 °F - 62.6 °F 57% 30.12 in 6.2 mi SSW 10.4 mph - N/A   Partly Cloudy
3:55 PM 78.8 °F - 60.8 °F 54% 30.12 in 6.2 mi South 11.5 mph - N/A   Partly Cloudy
4:55 PM 77.0 °F - 62.6 °F 61% 30.12 in 6.2 mi South 9.2 mph - N/A   Partly Cloudy
5:55 PM 73.4 °F - 62.6 °F 69% 30.12 in 6.2 mi South 10.4 mph - N/A   Partly Cloudy
6:55 PM 71.6 °F - 64.4 °F 78% 30.12 in 6.2 mi South 5.8 mph - N/A   Partly Cloudy
7:55 PM 69.8 °F - 66.2 °F 88% 30.12 in 6.2 mi SE 4.6 mph - N/A   Partly Cloudy
8:00 PM 71 °F - 66 °F 79% 30.15 in 7 mi SE 4.6 mph - -   Scattered Clouds
8:55 PM 69.8 °F - 62.6 °F 78% 30.12 in 6.2 mi SE 5.8 mph - N/A   Partly Cloudy
9:55 PM 69.8 °F - 66.2 °F 88% 30.15 in 6.2 mi ESE 5.8 mph - N/A   Partly Cloudy
10:55 PM 68.0 °F - 66.2 °F 94% 30.15 in 6.2 mi SE 5.8 mph - N/A   Partly Cloudy
11:55 PM 68.0 °F - 66.2 °F 94% 30.15 in 6.2 mi SE 5.8 mph - N/A   Partly Cloudy